This is the latest recevied weather packets stored in our database for station/object HB9CJD-1. If no packets are shown the sender has not sent any weather packets the latest 10 day(s).
| Time | Temp. | Humidity | Pressure | Rain* | Wind** | Luminosity | Snow |
|---|---|---|---|---|---|---|---|
| 1777662760 | 21.11° C | 30% | 1024.5 hPa | - | - | - | - |
| 1777662760 | 21.11° C | 30% | 1024.5 hPa | - | - | - | - |
| 1777662157 | 21.67° C | 28% | 1024.4 hPa | - | - | - | - |
| 1777662156 | 21.67° C | 28% | 1024.4 hPa | - | - | - | - |
| 1777661553 | 22.22° C | 28% | 1024.3 hPa | - | - | - | - |
| 1777661553 | 22.22° C | 28% | 1024.3 hPa | - | - | - | - |
| 1777660950 | 22.78° C | 32% | 1024.3 hPa | - | - | - | - |
| 1777660950 | 22.78° C | 32% | 1024.3 hPa | - | - | - | - |
| 1777660347 | 23.89° C | 27% | 1024.2 hPa | - | - | - | - |
| 1777660347 | 23.89° C | 27% | 1024.2 hPa | - | - | - | - |
| 1777659744 | 24.44° C | 28% | 1024.2 hPa | - | - | - | - |
| 1777659743 | 24.44° C | 28% | 1024.2 hPa | - | - | - | - |
| 1777659141 | 25.56° C | 26% | 1024.2 hPa | - | - | - | - |
| 1777659140 | 25.56° C | 26% | 1024.2 hPa | - | - | - | - |
| 1777658537 | 26.67° C | 26% | 1024.1 hPa | - | - | - | - |
| 1777658537 | 26.67° C | 26% | 1024.1 hPa | - | - | - | - |
| 1777657934 | 27.22° C | 26% | 1024.1 hPa | - | - | - | - |
| 1777657934 | 27.22° C | 26% | 1024.1 hPa | - | - | - | - |
| 1777657331 | 27.78° C | 26% | 1024 hPa | - | - | - | - |
| 1777657331 | 27.78° C | 26% | 1024 hPa | - | - | - | - |
| 1777656728 | 27.78° C | 26% | 1024 hPa | - | - | - | - |
| 1777656727 | 27.78° C | 26% | 1024 hPa | - | - | - | - |
| 1777656124 | 27.78° C | 23% | 1023.9 hPa | - | - | - | - |
| 1777656124 | 27.78° C | 23% | 1023.9 hPa | - | - | - | - |
| 1777655521 | 28.33° C | 27% | 1024 hPa | - | - | - | - |
* Rain since midnight (hover to see other rain measurements)
** Current wind speed in m/s (hover to see current wind gust speed)